SR8WXE Weather Reports


Display with metric or nautical units.
time (UTC)temp
F
wind
direction
speed
MPH
gust
MPH
rain 1hr
in
rain 24hr
in
rain mn
in
humidity
%
barometer
mb
20260507105315 71 239 6.0 13.0 0.00 0.00 0.00 41 1011.0
20260507104815 70 178 3.0 10.0 0.00 0.00 0.00 44 1011.0
20260507104315 70 202 2.0 15.0 0.00 0.00 0.00 44 1011.0
20260507103815 70 253 6.0 16.0 0.00 0.00 0.00 42 1011.0
20260507103314 70 196 5.0 13.0 0.00 0.00 0.00 42 1011.0
20260507102814 70 209 5.0 10.0 0.00 0.00 0.00 44 1011.1
20260507102314 70 237 8.0 9.0 0.00 0.00 0.00 43 1011.1
20260507101813 70 232 6.0 15.0 0.00 0.00 0.00 43 1011.0
20260507101313 70 226 9.0 13.0 0.00 0.00 0.00 42 1011.1
20260507100813 70 201 2.0 13.0 0.00 0.00 0.00 43 1011.0
20260507100313 70 206 3.0 12.0 0.00 0.00 0.00 43 1010.9
20260507095812 70 209 5.0 12.0 0.00 0.00 0.00 42 1011.0
20260507095312 70 241 8.0 13.0 0.00 0.00 0.00 44 1010.9
20260507094812 70 203 7.0 16.0 0.00 0.00 0.00 42 1010.9
20260507094311 70 230 4.0 13.0 0.00 0.00 0.00 43 1011.0
20260507093811 70 241 8.0 16.0 0.00 0.00 0.00 43 1011.0
20260507093311 70 232 2.0 16.0 0.00 0.00 0.00 44 1010.9
20260507092811 69 175 6.0 13.0 0.00 0.00 0.00 43 1011.0
20260507092310 69 240 9.0 14.0 0.00 0.00 0.00 45 1011.0
20260507091810 69 210 8.0 15.0 0.00 0.00 0.00 46 1011.0
20260507091310 68 232 7.0 11.0 0.00 0.00 0.00 49 1011.0
20260507090809 68 246 5.0 11.0 0.00 0.00 0.00 49 1011.0
20260507090309 68 254 2.0 13.0 0.00 0.00 0.00 49 1010.9
20260507085809 67 196 2.0 10.0 0.00 0.00 0.00 51 1010.9
20260507085309 67 236 2.0 9.0 0.00 0.00 0.00 50 1010.9
20260507084808 67 158 2.0 9.0 0.00 0.00 0.00 51 1011.0
20260507084308 67 264 5.0 9.0 0.00 0.00 0.00 50 1010.9
20260507083808 67 175 4.0 11.0 0.00 0.00 0.00 51 1010.9
20260507083307 67 122 0.0 11.0 0.00 0.00 0.00 52 1010.8
20260507082807 66 209 8.0 12.0 0.00 0.00 0.00 53 1010.8
20260507082307 66 130 3.0 12.0 0.00 0.00 0.00 54 1010.7
20260507081807 66 201 0.0 11.0 0.00 0.00 0.00 54 1010.8
20260507081306 66 199 9.0 13.0 0.00 0.00 0.00 55 1010.7
20260507080806 66 205 8.0 12.0 0.00 0.00 0.00 54 1010.7
20260507080306 65 203 7.0 13.0 0.00 0.00 0.00 54 1010.8
20260507075806 65 196 1.0 9.0 0.00 0.00 0.00 56 1010.8
20260507075307 65 233 2.0 10.0 0.00 0.00 0.00 56 1010.8
20260507074805 65 260 4.0 9.0 0.00 0.00 0.00 56 1010.8
20260507074305 65 234 4.0 9.0 0.00 0.00 0.00 57 1010.8
20260507073804 65 199 3.0 9.0 0.00 0.00 0.00 56 1010.7
20260507073304 64 209 6.0 10.0 0.00 0.00 0.00 57 1010.7
20260507072804 64 213 3.0 14.0 0.00 0.00 0.00 56 1010.6
20260507072306 64 164 3.0 10.0 0.00 0.00 0.00 57 1010.6
20260507071803 64 209 1.0 13.0 0.00 0.00 0.00 58 1010.6
20260507071303 64 171 2.0 11.0 0.00 0.00 0.00 57 1010.6
20260507070803 64 241 5.0 12.0 0.00 0.00 0.00 57 1010.6
20260507070302 64 230 9.0 11.0 0.00 0.00 0.00 57 1010.6
20260507065802 64 210 5.0 11.0 0.00 0.00 0.00 57 1010.5
20260507065305 64 178 0.0 4.0 0.00 0.00 0.00 58 1010.3
20260507064802 64 217 2.0 7.0 0.00 0.00 0.00 58 1010.3
20260507064301 64 172 3.0 8.0 0.00 0.00 0.00 58 1010.3
20260507063801 64 147 4.0 8.0 0.00 0.00 0.00 58 1010.3
20260507063301 64 233 3.0 6.0 0.00 0.00 0.00 59 1010.3
20260507062800 64 243 4.0 7.0 0.00 0.00 0.00 59 1010.3
20260507062300 63 160 3.0 11.0 0.00 0.00 0.00 59 1010.1
20260507061800 63 196 2.0 8.0 0.00 0.00 0.00 60 1010.1
20260507061300 63 243 1.0 6.0 0.00 0.00 0.00 60 1010.2
20260507060759 63 182 2.0 6.0 0.00 0.00 0.00 60 1010.2
20260507060259 63 223 2.0 8.0 0.00 0.00 0.00 61 1010.2
20260507055759 63 240 4.0 8.0 0.00 0.00 0.00 60 1010.1
20260507055258 62 182 3.0 9.0 0.00 0.00 0.00 61 1010.1
20260507054758 62 230 7.0 9.0 0.00 0.00 0.00 59 1010.1
20260507054258 62 104 2.0 6.0 0.00 0.00 0.00 61 1010.0
20260507053758 62 205 2.0 9.0 0.00 0.00 0.00 60 1010.0
20260507053257 62 222 1.0 7.0 0.00 0.00 0.00 61 1010.1
20260507052757 62 232 4.0 8.0 0.00 0.00 0.00 60 1010.1
20260507052257 62 188 2.0 11.0 0.00 0.00 0.00 61 1010.1
20260507051756 62 213 2.0 7.0 0.00 0.00 0.00 62 1010.1
20260507051256 62 199 0.0 9.0 0.00 0.00 0.00 62 1010.1
20260507050756 62 217 3.0 8.0 0.00 0.00 0.00 62 1010.1
20260507050256 62 213 2.0 9.0 0.00 0.00 0.00 62 1010.2
20260507045755 62 239 2.0 8.0 0.00 0.00 0.00 62 1010.2
20260507045255 62 253 3.0 10.0 0.00 0.00 0.00 61 1010.1
20260507044755 62 164 2.0 9.0 0.00 0.00 0.00 61 1010.1
20260507044254 62 229 7.0 8.0 0.00 0.00 0.00 60 1010.1
20260507043754 62 192 5.0 10.0 0.00 0.00 0.00 60 1010.0
20260507043254 62 248 1.0 9.0 0.00 0.00 0.00 60 1010.0
20260507042754 62 209 3.0 9.0 0.00 0.00 0.00 60 1010.0
20260507042253 62 208 2.0 8.0 0.00 0.00 0.00 60 1009.9
20260507041753 62 188 3.0 5.0 0.00 0.00 0.00 60 1009.8
20260507041253 62 209 2.0 6.0 0.00 0.00 0.00 61 1009.7
20260507040753 62 225 5.0 6.0 0.00 0.00 0.00 61 1009.6
20260507040252 62 244 2.0 5.0 0.00 0.00 0.00 60 1009.6
20260507035752 62 199 3.0 9.0 0.00 0.00 0.00 60 1009.6
20260507035252 62 142 2.0 9.0 0.00 0.00 0.00 59 1009.5
20260507034751 62 153 1.0 8.0 0.00 0.00 0.00 59 1009.5
20260507034251 63 237 2.0 10.0 0.00 0.00 0.00 57 1009.4
20260507033751 63 233 1.0 6.0 0.00 0.00 0.00 56 1009.4
20260507033250 63 195 0.0 4.0 0.00 0.00 0.00 56 1009.2
20260507032750 62 150 0.0 2.0 0.00 0.00 0.00 55 1009.2
20260507032250 63 143 0.0 6.0 0.00 0.00 0.00 55 1009.2
20260507031750 62 143 0.0 5.0 0.00 0.00 0.00 55 1009.1
20260507031249 62 230 2.0 5.0 0.00 0.00 0.00 55 1009.0
20260507030749 62 174 4.0 5.0 0.00 0.00 0.00 55 1009.0
20260507030249 63 202 0.0 5.0 0.00 0.00 0.00 55 1009.0
20260507025749 63 126 0.0 6.0 0.00 0.00 0.00 54 1008.9
20260507025248 63 146 1.0 10.0 0.00 0.00 0.00 54 1008.9
20260507024748 63 177 4.0 9.0 0.00 0.00 0.00 54 1008.8
20260507024248 63 240 0.0 7.0 0.00 0.00 0.00 54 1008.8
20260507023747 63 236 1.0 7.0 0.00 0.00 0.00 54 1008.8
20260507023247 63 170 4.0 7.0 0.00 0.00 0.00 54 1008.8
20260507022747 63 182 2.0 5.0 0.00 0.00 0.00 54 1008.8
20260507022247 63 201 3.0 5.0 0.00 0.00 0.00 53 1008.8
20260507021746 63 178 3.0 4.0 0.00 0.00 0.00 53 1008.7
20260507021246 63 187 0.0 3.0 0.00 0.00 0.00 53 1008.8
20260507020746 63 126 0.0 5.0 0.00 0.00 0.00 54 1008.8
20260507020245 62 158 0.0 3.0 0.00 0.00 0.00 54 1008.8
20260507015745 62 161 0.0 0.0 0.00 0.00 0.00 54 1008.8
20260507015245 62 161 0.0 2.0 0.00 0.00 0.00 54 1008.8
20260507014745 62 232 0.0 5.0 0.00 0.00 0.00 54 1008.9
20260507014244 62 201 0.0 1.0 0.00 0.00 0.00 54 1008.8
20260507013744 62 174 0.0 0.0 0.00 0.00 0.00 54 1008.9
20260507013244 62 174 0.0 1.0 0.00 0.00 0.00 54 1008.8
20260507012743 62 217 0.0 3.0 0.00 0.00 0.00 54 1008.8
20260507012243 63 229 0.0 6.0 0.00 0.00 0.00 54 1008.8
20260507011743 63 205 5.0 5.0 0.00 0.00 0.00 54 1008.7
20260507011243 62 217 2.0 9.0 0.00 0.00 0.00 53 1008.6
20260507010742 62 208 0.0 6.0 0.00 0.00 0.00 54 1008.6
20260507010242 62 177 1.0 7.0 0.00 0.00 0.00 54 1008.7
20260507005742 62 203 1.0 8.0 0.00 0.00 0.00 54 1008.6
20260507005241 62 213 5.0 7.0 0.00 0.00 0.00 55 1008.6
20260507004741 62 195 5.0 5.0 0.00 0.00 0.00 56 1008.6
20260507004241 61 196 2.0 3.0 0.00 0.00 0.00 56 1008.6
20260507003741 61 194 0.0 4.0 0.00 0.00 0.00 57 1008.7
20260507003240 60 167 0.0 3.0 0.00 0.00 0.00 58 1008.6
20260507002740 59 185 0.0 4.0 0.00 0.00 0.00 60 1008.6
20260507002240 58 171 0.0 4.0 0.00 0.00 0.00 63 1008.6
20260507001739 57 153 0.0 4.0 0.00 0.00 0.00 65 1008.5
20260507001239 57 187 0.0 0.0 0.00 0.00 0.00 65 1008.5
20260507000739 57 187 0.0 0.0 0.00 0.00 0.00 64 1008.5
20260507000239 57 187 0.0 0.0 0.00 0.00 0.00 63 1008.5
20260506235738 58 187 0.0 0.0 0.00 0.00 0.00 62 1008.4
20260506235238 58 187 0.0 0.0 0.00 0.00 0.00 61 1008.5
20260506234738 59 187 0.0 0.0 0.00 0.00 0.00 59 1008.4
20260506234238 60 187 0.0 0.0 0.00 0.00 0.00 57 1008.5
20260506233737 60 187 0.0 0.0 0.00 0.00 0.00 56 1008.5
20260506233237 61 187 0.0 0.0 0.00 0.00 0.00 55 1008.5
20260506232737 61 187 0.0 0.0 0.00 0.00 0.00 54 1008.6
20260506232236 61 187 0.0 0.0 0.00 0.00 0.00 54 1008.5
20260506231736 61 187 0.0 0.0 0.00 0.00 0.00 54 1008.5
20260506231236 61 187 0.0 1.0 0.00 0.00 0.00 53 1008.5
20260506230736 61 206 0.0 2.0 0.00 0.00 0.00 53 1008.5
20260506230235 61 203 0.0 1.0 0.00 0.00 0.00 53 1008.6
20260506225735 61 165 0.0 2.0 0.00 0.00 0.00 53 1008.5
20260506225235 61 196 0.0 1.0 0.00 0.00 0.00 53 1008.5
20260506224734 62 192 0.0 1.0 0.00 0.00 0.00 53 1008.5
20260506224234 62 220 0.0 2.0 0.00 0.00 0.00 52 1008.5
20260506223734 62 217 0.0 1.0 0.00 0.00 0.00 52 1008.5
20260506223234 62 140 0.0 3.0 0.00 0.00 0.00 52 1008.5
20260506222733 62 246 1.0 5.0 0.00 0.00 0.00 52 1008.5
20260506222233 62 196 0.0 2.0 0.00 0.00 0.00 52 1008.4
20260506221733 62 201 0.0 4.0 0.00 0.00 0.00 53 1008.3
20260506221232 61 174 0.0 5.0 0.00 0.00 0.00 54 1008.4
20260506220732 61 240 1.0 3.0 0.00 0.00 0.00 55 1008.4
20260506220232 61 201 1.0 7.0 0.00 0.00 0.00 55 1008.4
20260506215732 61 216 4.0 4.0 0.00 0.00 0.00 56 1008.4
20260506215231 61 170 0.0 1.0 0.00 0.00 0.00 55 1008.4
20260506214731 61 156 0.0 2.0 0.00 0.00 0.00 54 1008.4
20260506214231 61 119 0.0 0.0 0.00 0.00 0.00 54 1008.4
20260506213730 61 119 0.0 0.0 0.00 0.00 0.00 55 1008.3
20260506213230 61 119 0.0 0.0 0.00 0.00 0.00 55 1008.3
20260506212730 61 119 0.0 0.0 0.00 0.00 0.00 55 1008.3
20260506212230 61 119 0.0 1.0 0.00 0.00 0.00 54 1008.3
20260506211729 62 92 0.0 0.0 0.00 0.00 0.00 53 1008.3
20260506211229 62 92 0.0 1.0 0.00 0.00 0.00 52 1008.3
20260506210729 62 120 0.0 1.0 0.00 0.00 0.00 52 1008.2
20260506210228 62 170 1.0 3.0 0.00 0.00 0.00 51 1008.2
20260506205728 62 112 0.0 2.0 0.00 0.00 0.00 51 1008.2
20260506205228 63 109 0.0 1.0 0.00 0.00 0.00 50 1008.2
20260506204728 63 215 0.0 0.0 0.00 0.00 0.00 50 1008.1
20260506204227 63 215 0.0 2.0 0.00 0.00 0.00 49 1008.1
20260506203727 63 226 0.0 1.0 0.00 0.00 0.00 49 1008.1
20260506203227 63 111 0.0 3.0 0.00 0.00 0.00 49 1008.0
20260506202726 63 195 0.0 2.0 0.00 0.00 0.00 49 1008.0
20260506202226 64 212 0.0 2.0 0.00 0.00 0.00 48 1008.0
20260506201726 64 172 0.0 1.0 0.00 0.00 0.00 48 1008.0
20260506201226 64 187 0.0 1.0 0.00 0.00 0.00 47 1007.9
20260506200725 64 139 0.0 1.0 0.00 0.00 0.00 47 1007.9
20260506200225 64 150 0.0 3.0 0.00 0.00 0.00 47 1007.9
20260506195725 65 127 0.0 0.0 0.00 0.00 0.00 46 1007.9
20260506195225 65 127 0.0 1.0 0.00 0.00 0.00 46 1007.9
20260506194724 65 170 0.0 5.0 0.00 0.00 0.00 46 1007.9
20260506194224 65 205 0.0 5.0 0.00 0.00 0.00 47 1007.9
20260506193724 65 137 0.0 3.0 0.00 0.00 0.00 46 1007.8
20260506193223 65 210 0.0 4.0 0.00 0.00 0.00 46 1007.9
20260506192723 65 172 1.0 3.0 0.00 0.00 0.00 46 1007.9
20260506192223 65 163 0.0 3.0 0.00 0.00 0.00 45 1007.8
20260506191723 66 147 1.0 6.0 0.00 0.00 0.00 45 1007.9
20260506191222 66 220 0.0 5.0 0.00 0.00 0.00 45 1007.8
20260506190722 66 154 1.0 6.0 0.00 0.00 0.00 45 1007.8
20260506190222 66 196 1.0 4.0 0.00 0.00 0.00 44 1007.8
20260506185721 66 205 0.0 7.0 0.00 0.00 0.00 44 1007.8
20260506185221 66 216 1.0 3.0 0.00 0.00 0.00 44 1007.8
20260506184721 67 123 0.0 6.0 0.00 0.00 0.00 43 1007.7
20260506184221 67 189 0.0 5.0 0.00 0.00 0.00 43 1007.6
20260506183720 67 216 4.0 6.0 0.00 0.00 0.00 43 1007.6
20260506183220 67 188 2.0 9.0 0.00 0.00 0.00 43 1007.4
20260506182720 67 210 1.0 7.0 0.00 0.00 0.00 42 1007.4
20260506182219 68 130 0.0 5.0 0.00 0.00 0.00 42 1007.4
20260506181719 68 201 4.0 7.0 0.00 0.00 0.00 41 1007.3
20260506181219 68 199 2.0 8.0 0.00 0.00 0.00 41 1007.3
20260506180719 68 171 0.0 6.0 0.00 0.00 0.00 41 1007.3
20260506180218 68 292 1.0 8.0 0.00 0.00 0.00 40 1007.2
20260506175718 69 194 1.0 4.0 0.00 0.00 0.00 40 1007.1
20260506175218 69 184 1.0 8.0 0.00 0.00 0.00 39 1007.1
20260506174717 69 149 0.0 6.0 0.00 0.00 0.00 39 1007.1
20260506174217 69 188 5.0 7.0 0.00 0.00 0.00 39 1007.0
20260506173717 70 222 3.0 7.0 0.00 0.00 0.00 38 1007.0
20260506173217 70 165 0.0 4.0 0.00 0.00 0.00 38 1007.0
20260506172716 70 227 2.0 6.0 0.00 0.00 0.00 37 1007.0
20260506172216 71 187 0.0 7.0 0.00 0.00 0.00 36 1006.9
20260506171716 71 247 2.0 7.0 0.00 0.00 0.00 36 1006.9
20260506171215 71 188 0.0 8.0 0.00 0.00 0.00 36 1006.9
20260506170715 71 220 1.0 9.0 0.00 0.00 0.00 35 1006.9
20260506170215 71 226 2.0 11.0 0.00 0.00 0.00 34 1006.9
20260506165715 71 198 4.0 9.0 0.00 0.00 0.00 35 1007.0
20260506165214 71 232 5.0 12.0 0.00 0.00 0.00 35 1007.0
20260506164714 71 178 3.0 11.0 0.00 0.00 0.00 35 1007.0
20260506164214 71 225 5.0 10.0 0.00 0.00 0.00 35 1006.9
20260506163713 71 189 3.0 13.0 0.00 0.00 0.00 34 1006.9
20260506163213 72 212 4.0 11.0 0.00 0.00 0.00 34 1006.8
20260506162713 72 243 5.0 15.0 0.00 0.00 0.00 33 1006.8
20260506162213 73 223 2.0 15.0 0.00 0.00 0.00 33 1006.8
20260506161712 73 232 13.0 13.0 0.00 0.00 0.00 32 1006.8
20260506161212 73 208 12.0 12.0 0.00 0.00 0.00 32 1006.8
20260506160712 73 216 8.0 14.0 0.00 0.00 0.00 31 1006.8
20260506160211 73 232 3.0 15.0 0.00 0.00 0.00 31 1006.9
20260506155711 72 230 8.0 12.0 0.00 0.00 0.00 31 1007.0
20260506155211 72 161 2.0 13.0 0.00 0.00 0.00 32 1007.0
20260506154711 73 203 4.0 12.0 0.00 0.00 0.00 31 1007.0
20260506154210 73 219 2.0 15.0 0.00 0.00 0.00 29 1007.1
20260506153710 74 229 3.0 13.0 0.00 0.00 0.00 29 1007.0
20260506153210 74 264 5.0 19.0 0.00 0.00 0.00 29 1007.1
20260506152710 74 208 2.0 14.0 0.00 0.00 0.00 28 1007.1
20260506152209 74 208 6.0 19.0 0.00 0.00 0.00 27 1007.0
20260506151709 74 223 5.0 13.0 0.00 0.00 0.00 27 1007.0
20260506151209 74 216 2.0 14.0 0.00 0.00 0.00 27 1007.0
20260506150708 74 174 4.0 18.0 0.00 0.00 0.00 27 1007.1
20260506150208 74 220 5.0 15.0 0.00 0.00 0.00 27 1007.1
20260506145708 74 188 9.0 17.0 0.00 0.00 0.00 26 1007.1
20260506145208 74 244 9.0 12.0 0.00 0.00 0.00 28 1007.1
20260506144707 74 358 3.0 17.0 0.00 0.00 0.00 29 1007.1
20260506144207 74 216 9.0 18.0 0.00 0.00 0.00 29 1007.1
20260506143707 74 227 10.0 21.0 0.00 0.00 0.00 28 1007.2
20260506143206 74 232 4.0 16.0 0.00 0.00 0.00 29 1007.1
20260506142706 74 216 4.0 17.0 0.00 0.00 0.00 29 1007.1
20260506142206 74 167 8.0 14.0 0.00 0.00 0.00 29 1007.1
20260506141706 74 232 1.0 17.0 0.00 0.00 0.00 30 1007.1
20260506141205 74 213 4.0 12.0 0.00 0.00 0.00 29 1007.2
20260506140705 74 188 9.0 19.0 0.00 0.00 0.00 29 1007.3
20260506140205 74 219 7.0 12.0 0.00 0.00 0.00 31 1007.3
20260506135704 74 108 6.0 15.0 0.00 0.00 0.00 29 1007.2
20260506135204 75 222 6.0 16.0 0.00 0.00 0.00 29 1007.3
20260506134704 75 232 5.0 13.0 0.00 0.00 0.00 29 1007.3
20260506134204 75 157 9.0 16.0 0.00 0.00 0.00 28 1007.4
20260506133703 75 213 10.0 14.0 0.00 0.00 0.00 27 1007.4
20260506133203 75 237 7.0 15.0 0.00 0.00 0.00 29 1007.4
20260506132703 75 202 8.0 22.0 0.00 0.00 0.00 29 1007.4
20260506132202 75 220 10.0 13.0 0.00 0.00 0.00 29 1007.4
20260506131703 75 253 5.0 13.0 0.00 0.00 0.00 28 1007.4
20260506131202 75 187 8.0 18.0 0.00 0.00 0.00 29 1007.6
20260506130702 75 194 5.0 17.0 0.00 0.00 0.00 29 1007.6
20260506130201 74 185 9.0 16.0 0.00 0.00 0.00 29 1007.6
20260506125701 74 225 11.0 19.0 0.00 0.00 0.00 28 1007.7
20260506125201 75 185 6.0 16.0 0.00 0.00 0.00 28 1007.6
20260506124700 75 198 4.0 18.0 0.00 0.00 0.00 28 1007.7
20260506124200 75 196 15.0 16.0 0.00 0.00 0.00 29 1007.8
20260506123700 74 206 5.0 16.0 0.00 0.00 0.00 29 1007.8
20260506123200 74 143 4.0 18.0 0.00 0.00 0.00 30 1007.9
20260506122659 74 229 9.0 16.0 0.00 0.00 0.00 29 1008.0
20260506122159 74 261 5.0 23.0 0.00 0.00 0.00 29 1008.1
20260506121659 74 222 10.0 19.0 0.00 0.00 0.00 31 1008.0
20260506121158 74 219 9.0 19.0 0.00 0.00 0.00 30 1008.1
20260506120658 74 270 6.0 14.0 0.00 0.00 0.00 31 1008.1
20260506120158 74 222 6.0 23.0 0.00 0.00 0.00 30 1008.2
20260506115658 74 229 15.0 25.0 0.00 0.00 0.00 29 1008.3
20260506115157 74 261 9.0 19.0 0.00 0.00 0.00 28 1008.4
20260506114657 75 209 9.0 19.0 0.00 0.00 0.00 31 1008.4
20260506114157 75 157 10.0 15.0 0.00 0.00 0.00 30 1008.5
20260506113656 75 254 5.0 12.0 0.00 0.00 0.00 31 1008.4
20260506113156 74 258 4.0 17.0 0.00 0.00 0.00 31 1008.4
20260506112656 74 153 5.0 21.0 0.00 0.00 0.00 30 1008.6
20260506112156 74 182 11.0 17.0 0.00 0.00 0.00 32 1008.4
20260506111655 74 178 5.0 19.0 0.00 0.00 0.00 31 1008.6
20260506111155 74 220 9.0 15.0 0.00 0.00 0.00 31 1008.5
20260506110655 73 217 8.0 21.0 0.00 0.00 0.00 31 1008.7
20260506110155 73 199 7.0 21.0 0.00 0.00 0.00 31 1008.6
20260506105654 73 209 18.0 20.0 0.00 0.00 0.00 31 1008.6